Location: Hastringsfeld
(50.9620°N, 10.4787°E)
Time: 18:20:19
(UTC+00:00)

Cosmos 858 Rocket - Pass Details

Date: 26 September 2023
Orbit: 754 x 773 km, 74.1° (Epoch: 07 December)

Event Time Altitude Azimuth Distance (km) Brightness Sun altitude
Exits shadow 03:19:40 29° 224° (SW) 1,372 5.3 -17.8°
Maximum altitude 03:22:17 65° 298° (WNW) 840 4.5 -17.4°
Drops below altitude 10° 03:27:30 10° 20° (NNE) 2,313 7.5 -16.7°
Sets 03:29:55 0° 24° (NNE) 3,247 8.4 -16.3°
